Terug naar catalogus

COSMOS 1546

ActiefNavigatieGEO
NORAD 14867·PAYLOAD·🇷🇺 Russia

Gelanceerd Mar 29, 1984 vanaf Baikonur Cosmodrome

Loading…

TLE

VersSource: Space-Track

Epoch: Sep 13, 2026, 17:36 UTC

1 14867U 84031A   26256.73340786 -.00000050  00000-0  00000-0 0  9997
2 14867   8.5129 310.9400 0024010  17.3692 357.2983  1.00269667 48269

Volg COSMOS 1546 in realtime met AllMySat

Download on the App Store